Orbital Elements at Epoch 2459099.5 (2020-Sep-07.0) TDB
Reference: JPL 2 (heliocentric ecliptic J2000)
Element | Value | Uncertainty (1-sigma) | Units |
e | .3789431132456392 | 0.0016867 | |
a | 1.64851068614499 | 0.0046125 | au |
q | 1.023818914518503 | 8.4433e-05 | au |
i | 10.67471724838877 | 0.034033 | deg |
node | 166.8456780305623 | 0.0019854 | deg |
peri | 198.6371012580919 | 0.011157 | deg |
M | 350.798070400819 | 0.046814 | deg |
tp | 2459119.261162182114 (2020-Sep-26.76116218) | 0.017779 | TDB |
period | 773.1007185921299 2.12 | 3.2447 0.008884 | d yr |
n | .4656573087340871 | 0.0019543 | deg/d |
Q | 2.273202457771478 | 0.0063603 | au |
|
| | Orbit Determination Parameters
Additional Information
|